Torna al catalogo

COSMOS 1275 DEB

AttivoPO
NORAD 14409·DEBRIS·🇷🇺 Russia

Lanciato Jun 4, 1981 da Plesetsk Cosmodrome

Loading…

Prossimi Passaggi (prossime 24 ore)

TLE

AggiornatoSource: Space-Track

Epoca: Sep 14, 2026, 12:18 UTC

1 14409U 81053JE  26257.51276831  .00000723  00000-0  74774-3 0  9994
2 14409  83.0242 270.5535 0117943 257.6314 257.6076 13.71694482309537

Traccia COSMOS 1275 DEB in tempo reale con AllMySat

Download on the App Store